Вернуться в каталог

CZ-6A DEB

АктивенPO
NORAD 54454·DEBRIS·🇨🇳 China

Запущен Nov 11, 2022 с Taiyuan Satellite Launch Center

Loading…

Ближайшие Пролёты (ближайшие 24 часа)

TLE

СвежийSource: Space-Track

Эпоха: Sep 14, 2026, 05:10 UTC

1 54454U 22151GE  26257.21550789  .00001820  00000-0  15794-2 0  9991
2 54454  98.8339 169.0221 0233410 330.4169  28.3945 13.75695339191793

Отслеживайте CZ-6A DEB в реальном времени с AllMySat

Download on the App Store